sat.trackr.live / text

‹ back to catalog

CASSIOPE

NORAD 39265 · 2013-055A

PAYLOAD ACTIVE UNKNOWN

§ Identity

Operator
Country
CA
Launch date
2013-09-29
Launch site
AFWTR
Launch vehicle
Mass (kg)
RCS (m²)
2.06

Purposes: science

External: N2YO · Heavens-Above · Gunter

§ Orbital elements

Epoch: 2026-09-20T03:40:06.074976Z

Period
94.00 min
Inclination
80.9123°
Eccentricity
0.0268417
Mean motion
15.31928533 rev/d
Perigee alt
286.2 km
Apogee alt
653.9 km
Semi-major
6,848.2 km
B*
3.1045e-4
RAAN
310.8143°
Arg perigee
100.6970°
Mean anomaly
262.4610°
Rev number
68,217

§ Raw data

CASSIOPE1 39265U 13055A   26263.15284809  .00031489 -71199-6  31045-3 0  99902 39265  80.9123 310.8143 0268417 100.6970 262.4610 15.31928533682176

JSON: /api/v1/satellites/39265 · /tle

For live sub-satellite position, see the globe view (requires WebGL).

§ Visibility from observer

Set your observer location to see the next 7 days of passes ≥ 10°. The values pass through the URL so the page stays shareable.

No JS? Fill the form by hand. The geolocation button needs JavaScript.

§ Radio — SatNOGS DB

ModeDescriptionDownlinkUplink
CERTO CERTO 1 150.012 MHz
CERTO CERTO 2 400.032 MHz
CERTO CERTO 3 1.067 GHz
FM Mode S- TLM 2.232 GHz

4 transmitters · refreshed weekly from db.satnogs.org